Temperature
19 19 19 19 19 19 19 19 19 18 18 18 18 18 18 18 17 17 17 17 17 17 17 17 17 17 17 17 17 17 17 17 17 16 16 16 16 16 15 15 15 15 15
19 19 19 19 19 19 18 18 18 18 18 18 18 18 18 17 17 17 17 17 17 17 17 17 17 17 17 17 17 16 16 16 16 16 16 15 15 15 15 15 15 15 15
19 19 19 19 19 18 18 18 18 18 18 17 17 17 17 17 17 17 17 17 17 17 17 17 17 17 17 16 16 16 16 16 16 16 15 15 15 15 15 15 14 14 14
18 18 18 18 18 18 18 18 17 17 17 17 17 17 17 17 17 17 17 17 17 17 17 17 16 16 16 16 16 16 16 15 15 15 15 15 15 15 15 14 14 14 14
18 18 18 18 18 18 17 17 17 17 17 17 17 17 17 17 17 17 17 16 16 16 16 16 16 16 16 16 15 15 15 15 15 15 15 15 15 14 14 14 14 14 14
18 18 17 17 17 17 17 17 17 17 17 17 17 17 16 17 17 17 17 16 16 16 16 16 16 16 16 16 16 15 15 15 15 15 15 14 14 14 14 14 14 14 13
17 17 17 17 17 17 17 17 17 17 17 16 16 16 16 17 17 17 16 16 16 16 16 15 15 16 15 15 15 15 15 15 15 14 14 14 14 14 13 13 13 13 13
17 17 17 16 16 16 16 16 17 16 16 16 16 16 16 16 16 16 16 16 15 15 15 15 15 15 15 15 15 14 14 14 14 14 14 14 13 14 13 13 13 13 13
16 17 17 16 16 16 16 16 16 16 16 16 16 16 16 16 16 16 16 15 15 15 15 15 15 15 15 15 14 14 14 14 14 14 14 13 13 13 13 13 12 13 13
16 16 16 16 16 16 16 16 16 16 16 15 15 15 15 15 15 15 15 15 14 14 15 14 15 15 14 14 14 14 14 13 13 13 13 13 13 13 13 12 12 12 12
16 15 15 15 16 16 16 15 15 15 15 15 15 15 15 15 15 15 15 15 14 14 14 14 14 14 14 14 14 13 13 13 13 13 13 13 12 12 12 12 12 12 12
15 15 15 15 15 15 15 15 15 15 15 15 15 14 14 14 14 15 15 14 14 14 13 13 14 14 14 13 13 13 13 13 12 12 12 12 12 12 12 12 12 11 11
15 15 14 14 14 14 14 14 14 14 14 14 14 14 14 14 14 14 14 14 14 13 13 13 13 13 13 13 13 13 12 12 12 12 12 12 12 11 11 11 11 11 11
15 14 14 14 14 14 14 14 14 14 14 14 14 13 13 13 13 13 14 13 13 13 13 13 13 13 13 13 13 12 12 12 12 12 12 12 11 11 11 11 11 11 11
14 14 14 14 14 14 14 14 14 14 14 13 13 13 13 13 13 13 13 13 13 13 12 12 12 12 12 12 12 12 12 11 11 11 11 11 11 11 11 11 11 10 10
13 13 14 14 13 13 13 13 13 13 13 13 13 13 13 13 13 13 13 12 12 12 12 12 12 12 12 12 12 11 11 11 11 11 11 11 11 11 11 10 10 10 10
13 13 13 13 13 13 13 13 13 13 13 13 13 13 12 12 13 12 12 12 12 12 12 12 12 12 11 11 11 11 11 11 10 10 10 10 10 10 10 10 10 10 10
12 12 12 12 13 13 13 13 13 13 13 13 13 12 12 12 12 12 12 12 11 11 11 11 11 11 11 11 11 10 10 10 10 10 10 10 10 10 10 10 10 10 10
12 12 12 12 12 12 12 13 13 13 13 13 13 13 12 12 12 11 11 11 11 11 11 11 11 11 11 10 10 10 10 10 10 10 10 10 10 9 9 9 9 9 9
12 12 12 12 12 12 12 12 13 12 12 12 12 12 12 12 11 11 11 11 11 11 11 11 10 10 10 10 10 10 9 9 9 9 9 9 9 9 9 9 9 9 9
12 12 11 11 12 12 12 12 12 12 12 12 12 12 12 11 11 11 11 10 10 10 10 10 10 10 9 9 9 9 9 9 9 9 9 9 8 8 8 8 8 8 8
11 12 11 11 11 11 11 12 12 12 12 12 11 11 11 11 11 11 10 10 10 10 10 10 9 9 9 9 9 9 9 8 8 8 8 8 8 8 8 8 8 8 8
11 11 11 11 11 11 11 11 11 11 11 11 11 11 11 10 10 10 10 10 9 9 9 9 9 9 9 9 8 8 8 8 8 8 8 8 8 8 8 8 8 8 8
11 11 11 11 11 11 11 11 11 11 11 11 11 11 10 10 10 10 10 10 9 9 9 9 8 8 8 8 8 8 8 8 8 8 7 7 7 7 7 7 7 7 7
11 11 11 11 10 10 10 10 11 10 10 10 10 10 10 10 10 10 9 9 9 9 9 8 8 8 8 8 8 8 8 8 7 7 7 7 7 7 7 7 7 7 7
10 10 10 10 10 10 10 10 10 10 10 10 10 10 9 9 9 9 9 9 8 8 8 8 8 8 8 8 7 7 7 7 7 7 7 6 6 6 6 6 6 6 6
Wind_Speed
6 5 5 4 4 4 3 3 3 3 3 3 3 2 3 3 2 3 3 3 4 4 4 4 4 4 4 4 4 4 4 4 5 6 4 3 4 5 4 5 5 5 4
5 5 5 4 4 4 4 4 4 4 4 3 3 3 4 3 3 3 4 4 4 4 4 4 5 4 4 5 4 5 4 4 5 6 5 4 5 5 5 6 5 5 4
5 5 5 5 5 5 4 4 4 4 4 3 3 4 4 4 3 3 4 4 5 4 4 4 5 4 4 4 5 5 5 5 5 6 6 4 4 4 5 5 5 5 5
4 4 4 4 4 4 4 4 4 4 4 4 4 4 4 4 4 4 4 4 4 4 4 4 5 5 5 5 5 5 5 5 5 6 6 5 4 4 4 4 4 4 4
4 4 4 4 4 4 4 4 4 4 4 4 4 4 3 3 3 3 4 4 4 4 4 5 5 4 4 5 5 5 5 6 5 5 5 5 4 3 4 4 4 4 3
4 4 4 4 4 4 4 3 3 3 3 3 4 4 4 3 1 1 4 4 4 5 5 5 5 4 4 4 5 7 7 6 6 6 6 5 5 5 5 5 5 5 4
3 3 4 3 3 3 3 3 3 3 3 3 3 3 3 2 1 1 4 5 5 5 5 5 6 4 4 5 5 7 7 6 7 7 7 7 6 5 5 6 5 6 5
2 2 2 3 3 3 3 2 2 2 3 3 3 3 3 2 1 2 4 5 5 5 5 5 6 5 5 5 6 5 6 6 7 7 7 7 6 5 6 7 7 6 6
2 2 2 2 3 3 3 3 3 3 3 3 3 3 4 3 1 3 5 5 5 5 5 5 5 5 3 4 6 6 6 6 5 5 6 7 7 7 6 6 5 5 5
2 2 2 3 3 3 3 3 3 3 3 4 3 4 4 4 2 3 5 5 5 5 5 5 4 4 4 4 6 6 7 6 5 5 5 6 7 7 8 7 6 6 5
3 2 3 3 3 4 3 3 3 4 3 4 4 4 4 5 3 3 4 5 5 6 6 5 3 3 5 6 7 6 7 7 6 6 6 5 5 4 5 5 5 6 6
3 3 3 3 3 3 3 4 4 4 4 4 4 5 4 4 3 2 4 6 8 7 6 5 4 2 5 6 6 5 6 7 6 5 5 4 4 4 4 4 4 5 5
2 2 3 3 3 3 4 4 4 4 5 4 4 4 4 3 2 3 5 7 8 6 5 5 4 4 6 6 6 7 6 5 5 5 5 5 4 4 4 4 4 4 5
2 2 3 3 3 3 4 4 4 4 4 4 4 4 4 4 3 2 3 3 5 6 6 5 5 7 7 6 5 5 5 5 5 5 5 4 3 3 4 3 3 3 4
2 3 3 3 3 3 3 3 4 3 3 4 4 4 4 4 2 3 4 4 4 4 5 5 5 4 4 4 4 4 4 4 4 4 4 4 4 4 3 3 3 4 4
3 3 3 3 2 3 3 2 1 2 1 3 3 5 3 2 1 2 4 5 5 6 5 5 5 5 5 5 5 4 4 4 4 4 4 4 4 4 4 3 3 4 4
4 3 3 3 3 3 3 3 3 2 3 4 4 4 4 3 2 3 5 5 6 6 5 5 5 5 5 5 5 5 4 4 3 4 4 4 4 3 3 3 3 3 3
4 3 3 3 3 3 3 3 3 3 3 3 4 5 4 4 5 5 5 4 4 5 5 5 5 5 5 4 5 5 4 4 3 4 4 4 4 4 4 3 3 3 3
4 3 3 3 3 3 3 3 3 3 3 3 2 2 4 5 6 5 5 4 4 4 4 5 5 5 4 4 4 4 4 3 3 3 4 4 4 3 3 3 3 2 3
4 4 4 4 4 4 4 4 4 4 4 3 3 2 1 2 2 2 3 4 4 4 4 4 4 5 4 3 3 3 3 3 3 3 3 3 2 2 3 3 2 2 3
4 4 5 5 5 4 4 4 4 4 4 3 3 2 1 3 4 3 3 3 4 4 4 4 4 4 3 3 3 3 3 3 3 2 2 2 2 2 2 2 3 3 2
5 4 4 4 4 4 4 4 4 4 4 4 4 2 4 4 3 3 3 3 3 3 3 3 3 3 3 2 2 2 2 2 2 2 2 1 1 2 2 2 2 2 2
5 4 4 4 4 4 5 5 4 5 4 4 3 2 2 3 4 4 3 3 3 3 3 2 2 2 2 2 2 2 2 2 2 2 1 2 2 1 1 1 1 1 1
5 5 4 4 4 4 4 4 4 4 4 3 3 3 3 3 4 4 3 3 3 3 2 2 2 2 2 2 2 2 2 2 2 2 2 1 1 1 1 1 1 1 1
4 4 4 4 3 3 3 4 4 4 4 3 3 3 3 3 3 3 3 3 3 3 2 2 1 2 2 2 2 2 3 3 3 3 2 2 1 1 1 1 1 1 1
4 4 3 3 3 3 3 3 3 3 3 3 3 3 3 3 3 3 2 2 2 2 2 1 1 2 2 1 1 3 3 2 2 3 3 1 1 1 1 1 1 1 1
Wind_Direction
181 186 193 195 203 207 217 224 229 237 238 240 247 251 256 256 253 254 266 266 257 260 262 260 267 283 282 280 277 273 270 269 269 281 290 289 280 281 279 270 261 254 238
179 183 193 200 206 217 222 227 226 231 235 235 243 251 255 254 254 253 259 262 261 262 268 276 278 276 276 281 280 277 273 269 265 277 285 284 272 269 268 267 268 261 255
184 188 191 201 203 215 226 227 226 230 239 240 241 248 252 252 251 253 256 260 261 265 269 272 279 283 280 280 277 274 268 265 262 267 277 284 280 276 274 268 265 264 262
185 190 197 209 212 215 223 225 225 228 233 237 241 244 249 250 250 253 253 255 260 264 267 269 272 273 274 276 273 272 275 274 266 267 274 277 279 280 272 274 271 264 272
191 200 210 220 219 222 225 222 221 228 234 235 242 242 242 241 244 246 253 250 256 262 263 265 269 278 292 287 285 283 278 274 273 271 274 280 281 289 283 279 282 285 276
211 213 216 225 226 225 224 224 227 232 243 245 247 242 244 256 35 295 266 262 263 265 266 266 261 254 256 249 270 284 286 273 276 274 271 276 279 280 283 279 282 283 284
220 221 221 224 229 233 234 228 234 240 240 239 241 237 238 259 98 242 263 262 262 266 265 267 272 270 264 264 247 244 260 263 262 267 272 275 276 281 282 276 277 275 278
236 242 236 229 233 235 231 231 238 245 246 247 246 239 245 250 179 249 267 253 264 267 267 267 269 274 278 283 274 267 262 257 255 256 267 272 277 282 272 267 269 262 259
246 247 245 236 229 226 231 236 234 237 247 250 246 247 251 258 239 254 267 256 257 263 268 269 270 273 292 293 272 267 267 269 249 252 266 269 271 265 268 268 267 268 274
259 257 244 236 236 236 234 238 239 237 243 251 253 255 254 261 249 259 269 264 265 266 260 257 250 267 279 274 267 265 265 271 276 256 248 245 249 238 231 246 258 264 272
277 265 255 243 241 241 240 238 239 239 238 246 252 254 254 259 237 229 255 264 271 270 271 269 269 230 249 253 259 264 269 273 266 261 258 256 250 246 239 240 251 258 263
283 272 264 255 255 246 243 244 242 245 242 241 248 256 253 251 259 244 233 250 279 275 279 285 293 237 248 248 257 270 266 261 260 259 259 262 261 258 255 253 254 260 266
300 287 287 270 262 258 248 243 243 244 254 257 256 260 261 258 236 208 222 238 261 272 283 298 294 253 253 247 239 246 248 254 258 260 263 265 268 267 260 250 242 239 246
289 292 284 273 264 260 261 252 249 250 256 263 264 266 265 262 270 270 262 254 250 264 279 267 237 238 249 259 250 244 252 258 262 263 267 270 270 258 251 256 257 254 254
284 280 276 270 264 263 260 270 265 262 267 264 269 271 268 268 286 316 289 283 282 281 282 273 270 269 265 266 263 260 261 258 259 263 263 264 262 256 256 265 265 259 259
277 281 283 283 274 264 258 258 302 272 230 240 269 288 287 323 342 289 290 299 291 273 271 268 269 267 267 268 269 268 260 257 260 263 262 259 257 255 258 260 256 251 252
281 284 285 287 280 267 264 266 267 245 214 224 226 249 275 288 265 252 256 264 257 247 254 262 266 267 268 270 271 269 264 260 256 254 255 256 255 255 256 255 252 250 253
270 267 272 275 275 274 275 273 270 272 265 253 219 203 216 237 241 235 231 240 255 245 265 274 273 269 266 270 274 275 270 262 256 258 258 257 255 256 256 251 248 255 252
267 271 270 273 270 268 274 274 270 266 268 273 272 197 206 229 223 221 218 255 268 270 275 277 276 273 268 266 272 275 271 268 270 268 263 261 257 253 253 255 252 246 253
256 261 264 263 264 263 264 265 263 261 264 271 274 281 244 241 260 255 254 274 279 284 287 288 288 286 276 267 261 263 269 270 273 270 275 269 265 256 249 249 249 239 242
257 242 233 253 259 262 264 263 264 267 269 272 275 276 221 244 248 254 261 271 280 289 294 294 292 288 283 277 273 264 259 262 264 266 272 274 268 255 251 245 244 242 244
263 257 251 255 259 260 262 260 260 262 266 271 280 272 191 244 262 264 264 271 276 283 290 288 284 284 285 290 292 291 290 283 269 255 246 251 252 248 243 240 242 239 242
262 262 258 257 257 255 257 262 266 269 271 274 279 274 242 253 263 273 280 284 282 281 278 275 284 298 298 284 277 275 277 279 289 286 249 236 237 244 236 237 241 232 249
254 254 256 259 258 260 265 269 271 271 274 278 281 278 269 261 263 270 279 285 282 277 271 265 270 289 304 306 289 278 299 322 311 287 284 272 260 259 251 248 250 251 248
253 256 258 259 261 266 271 274 277 283 286 286 289 289 287 284 283 288 288 281 271 269 276 277 281 286 285 293 307 340 31 19 340 321 278 262 270 286 283 272 267 260 251
256 257 262 259 258 265 270 275 283 292 292 295 301 306 304 301 298 306 309 297 290 290 293 298 326 324 312 294 21 51 64 41 351 315 291 264 252 273 298 293 298 304 308
Height
1523 1524 1526 1527 1528 1528 1529 1529 1529 1529 1529 1529 1529 1529 1529 1529 1529 1529 1529 1529 1528 1528 1527 1527 1526 1526 1526 1525 1525 1524 1523 1523 1521 1520 1520 1518 1516 1515 1514 1513 1512 1511 1510
1521 1522 1523 1524 1525 1526 1526 1526 1527 1527 1527 1527 1527 1527 1527 1527 1527 1527 1527 1527 1526 1526 1525 1525 1524 1524 1522 1522 1522 1521 1520 1519 1519 1517 1516 1515 1513 1512 1511 1509 1509 1508 1506
1519 1520 1521 1522 1522 1523 1523 1524 1524 1524 1525 1525 1525 1525 1525 1525 1525 1525 1524 1524 1524 1523 1523 1522 1521 1521 1520 1520 1519 1518 1518 1517 1515 1514 1513 1512 1511 1509 1508 1507 1505 1504 1503
1517 1518 1519 1519 1520 1520 1521 1521 1521 1522 1522 1522 1522 1522 1522 1522 1522 1522 1522 1521 1521 1520 1520 1519 1519 1518 1517 1516 1516 1514 1514 1513 1512 1511 1510 1509 1508 1506 1505 1504 1502 1501 1500
1516 1516 1517 1517 1517 1518 1518 1518 1519 1519 1519 1519 1519 1520 1520 1520 1520 1519 1519 1519 1518 1517 1517 1516 1516 1515 1514 1513 1513 1512 1511 1510 1509 1508 1507 1506 1505 1503 1502 1500 1499 1498 1497
1514 1514 1515 1515 1515 1515 1515 1516 1516 1516 1516 1516 1516 1517 1517 1517 1516 1516 1516 1516 1515 1514 1513 1513 1512 1511 1510 1509 1508 1507 1507 1506 1505 1504 1503 1502 1501 1500 1498 1497 1496 1495 1494
1511 1512 1512 1512 1513 1513 1513 1513 1513 1513 1513 1513 1513 1513 1513 1513 1513 1512 1512 1512 1511 1511 1510 1509 1509 1508 1507 1505 1504 1503 1502 1501 1501 1500 1499 1498 1497 1496 1495 1494 1492 1492 1490
1509 1510 1510 1510 1510 1510 1510 1510 1510 1510 1510 1510 1510 1510 1510 1509 1509 1509 1509 1508 1508 1507 1506 1505 1504 1503 1502 1501 1500 1499 1498 1497 1496 1496 1495 1494 1493 1492 1491 1490 1489 1488 1487
1507 1507 1507 1507 1507 1506 1506 1507 1507 1507 1507 1507 1507 1506 1506 1506 1505 1505 1505 1504 1504 1503 1502 1501 1500 1499 1498 1497 1496 1495 1493 1492 1492 1491 1490 1489 1488 1487 1487 1487 1486 1485 1484
1504 1504 1504 1504 1503 1503 1503 1503 1503 1503 1503 1503 1503 1502 1502 1502 1501 1501 1501 1501 1500 1499 1498 1497 1496 1495 1494 1492 1491 1490 1489 1488 1487 1486 1485 1484 1483 1483 1482 1482 1482 1481 1480
1502 1501 1500 1500 1500 1500 1500 1500 1500 1500 1499 1499 1499 1498 1498 1497 1497 1497 1497 1496 1496 1496 1495 1494 1492 1490 1489 1488 1487 1486 1484 1483 1483 1482 1481 1480 1480 1479 1478 1477 1477 1476 1476
1498 1498 1497 1497 1497 1497 1496 1496 1496 1496 1495 1495 1495 1495 1494 1494 1493 1492 1492 1492 1492 1491 1491 1490 1488 1486 1485 1483 1483 1482 1480 1480 1479 1479 1478 1477 1476 1475 1474 1473 1472 1471 1471
1495 1495 1494 1494 1494 1494 1493 1493 1493 1492 1493 1492 1492 1491 1490 1490 1489 1488 1488 1488 1487 1487 1486 1485 1483 1482 1480 1479 1478 1477 1476 1476 1475 1475 1474 1473 1472 1471 1470 1469 1468 1467 1467
1492 1492 1491 1491 1491 1490 1490 1490 1489 1489 1489 1489 1488 1488 1487 1487 1486 1484 1484 1484 1483 1482 1482 1480 1479 1477 1476 1475 1474 1473 1472 1472 1471 1470 1470 1469 1468 1467 1466 1465 1464 1464 1464
1489 1489 1489 1488 1487 1487 1486 1486 1486 1486 1485 1485 1484 1484 1484 1483 1482 1481 1480 1479 1479 1478 1477 1476 1475 1474 1472 1471 1470 1469 1468 1467 1466 1466 1465 1465 1464 1463 1462 1462 1461 1461 1461
1487 1486 1486 1486 1485 1484 1483 1482 1482 1482 1481 1481 1480 1480 1480 1479 1478 1477 1476 1476 1475 1474 1473 1472 1471 1470 1468 1467 1466 1465 1464 1463 1462 1462 1461 1461 1460 1459 1459 1458 1458 1458 1458
1484 1483 1483 1483 1482 1482 1481 1480 1479 1478 1477 1477 1476 1475 1475 1475 1474 1473 1472 1471 1470 1469 1469 1468 1467 1466 1465 1463 1462 1461 1460 1459 1458 1457 1457 1457 1456 1455 1455 1454 1454 1454 1454
1481 1481 1480 1480 1479 1479 1478 1477 1476 1475 1474 1473 1473 1471 1471 1470 1470 1469 1467 1467 1466 1465 1465 1465 1464 1462 1461 1459 1458 1457 1456 1455 1454 1454 1453 1453 1452 1451 1451 1451 1451 1450 1451
1479 1478 1478 1477 1476 1475 1474 1474 1473 1472 1471 1470 1469 1468 1467 1466 1466 1465 1464 1463 1462 1461 1461 1460 1460 1459 1457 1456 1454 1453 1453 1452 1451 1450 1450 1449 1448 1448 1447 1447 1447 1447 1447
1475 1475 1474 1474 1473 1472 1471 1470 1470 1469 1468 1467 1466 1465 1464 1463 1462 1462 1461 1460 1459 1458 1457 1457 1456 1455 1453 1452 1450 1450 1449 1449 1448 1447 1446 1445 1444 1444 1444 1444 1444 1444 1444
1472 1471 1470 1470 1470 1469 1468 1467 1466 1466 1465 1464 1463 1462 1461 1460 1460 1459 1458 1457 1456 1455 1454 1453 1453 1451 1450 1448 1447 1446 1446 1446 1445 1444 1444 1443 1442 1441 1441 1441 1441 1441 1441
1468 1468 1468 1467 1466 1465 1464 1464 1463 1462 1462 1461 1460 1459 1458 1458 1458 1457 1456 1455 1454 1453 1452 1451 1450 1449 1447 1446 1444 1443 1443 1442 1442 1441 1440 1440 1439 1439 1439 1439 1439 1439 1439
1465 1464 1464 1464 1463 1462 1461 1461 1460 1460 1459 1457 1457 1456 1455 1455 1454 1454 1453 1452 1451 1450 1449 1448 1447 1446 1445 1444 1443 1442 1441 1440 1439 1438 1438 1437 1438 1438 1437 1437 1437 1437 1437
1462 1461 1461 1460 1460 1459 1458 1458 1457 1456 1455 1454 1454 1453 1452 1452 1452 1451 1450 1450 1449 1448 1447 1446 1445 1444 1443 1442 1441 1440 1439 1439 1438 1437 1436 1436 1436 1436 1436 1436 1436 1436 1436
1458 1458 1458 1457 1457 1456 1455 1454 1454 1453 1452 1451 1451 1450 1449 1449 1449 1448 1447 1447 1446 1445 1444 1443 1442 1442 1441 1440 1439 1438 1437 1437 1436 1436 1435 1435 1435 1435 1435 1436 1435 1435 1435
1455 1455 1455 1454 1454 1453 1452 1452 1451 1450 1450 1449 1448 1447 1447 1446 1446 1445 1444 1444 1443 1443 1442 1441 1440 1440 1439 1438 1437 1436 1435 1435 1434 1434 1434 1434 1434 1434 1435 1435 1435 1435 1435